EW6030 Weather Reports


Display with metric or nautical units.
time (UTC)temp
F
wind
direction
speed
MPH
gust
MPH
rain 1hr
in
rain 24hr
in
rain mn
in
humidity
%
barometer
mb
20260510144533 55 55 0.0 0.0 0.00 0.00 0.00 43 1015.5
20260510143025 54 61 1.0 0.0 0.00 0.00 0.00 46 1015.5
20260510141530 54 57 0.0 0.0 0.00 0.00 0.00 45 1015.3
20260510140021 53 64 0.0 0.0 0.00 0.00 0.00 52 1015.4
20260510134518 52 66 0.0 0.0 0.00 0.00 0.00 51 1015.4
20260510133017 51 65 1.0 0.0 0.00 0.00 0.00 52 1015.4
20260510131511 50 74 0.0 0.0 0.00 0.00 0.00 58 1015.1
20260510130010 48 185 0.0 0.0 0.00 0.00 0.00 67 1015.0
20260510124509 44 185 0.0 0.0 0.00 0.00 0.00 74 1015.1
20260510123009 42 185 0.0 0.0 0.00 0.00 0.00 76 1015.1
20260510121506 40 185 0.0 0.0 0.00 0.00 0.00 76 1015.1
20260510120005 39 185 0.0 0.0 0.00 0.00 0.00 76 1014.9
20260510114504 38 185 0.0 0.0 0.00 0.00 0.00 76 1014.8
20260510113002 37 185 0.0 0.0 0.00 0.00 0.00 76 1014.5
20260510111501 37 185 0.0 0.0 0.00 0.00 0.00 76 1014.3
20260510110100 37 185 0.0 0.0 0.00 0.00 0.00 75 1014.3
20260510104558 37 185 0.0 0.0 0.00 0.00 0.00 75 1014.1
20260510103101 38 185 0.0 0.0 0.00 0.00 0.00 74 1014.0
20260510101603 39 185 0.0 0.0 0.00 0.00 0.00 73 1013.8
20260510100049 39 185 0.0 0.0 0.00 0.00 0.00 72 1013.5
20260510094548 40 185 0.0 0.0 0.00 0.00 0.00 70 1013.3
20260510093045 40 185 0.0 0.0 0.00 0.00 0.00 70 1013.1
20260510091544 40 185 0.0 0.0 0.00 0.00 0.00 72 1012.9
20260510090045 40 185 0.0 0.0 0.00 0.00 0.00 71 1012.8
20260510084539 40 185 0.0 0.0 0.00 0.00 0.00 71 1012.5
20260510083037 40 185 0.0 0.0 0.00 0.00 0.00 71 1012.1
20260510081542 40 185 0.0 0.0 0.00 0.00 0.00 69 1012.0
20260510080034 40 185 0.0 0.0 0.00 0.00 0.00 67 1012.0
20260510074532 41 185 0.0 0.0 0.00 0.00 0.00 68 1011.9
20260510073028 41 185 0.0 0.0 0.00 0.00 0.00 66 1011.5
20260510071525 42 185 0.0 0.0 0.00 0.00 0.00 65 1011.1
20260510070027 43 185 0.0 0.0 0.00 0.00 0.00 63 1011.0
20260510064520 43 185 0.0 0.0 0.00 0.00 0.00 61 1010.7
20260510063020 44 185 0.0 0.0 0.00 0.00 0.00 60 1010.6
20260510061523 45 185 0.0 0.0 0.00 0.00 0.00 57 1010.6
20260510060010 46 185 0.0 0.0 0.00 0.00 0.00 55 1010.6
20260510054507 47 185 0.0 0.0 0.00 0.00 0.00 54 1010.5
20260510053003 48 185 0.0 0.0 0.00 0.00 0.00 52 1010.1
20260510051603 48 185 0.0 0.0 0.00 0.00 0.00 50 1009.9
20260510050058 48 193 0.0 0.0 0.00 0.00 0.00 49 1009.6
20260510044555 48 91 0.0 0.0 0.00 0.00 0.00 49 1009.2
20260510043055 49 90 0.0 0.0 0.00 0.00 0.00 48 1009.0
20260510041615 49 90 0.0 0.0 0.00 0.00 0.00 47 1008.9
20260510040049 50 89 0.0 0.0 0.00 0.00 0.00 47 1008.7
20260510034554 51 89 0.0 0.0 0.00 0.00 0.00 47 1008.6
20260510033050 51 89 0.0 0.0 0.00 0.00 0.00 46 1008.4
20260510031551 52 87 0.0 0.0 0.00 0.00 0.00 45 1008.1
20260510030041 53 87 0.0 0.0 0.00 0.00 0.00 44 1008.0
20260510024553 53 87 0.0 0.0 0.00 0.00 0.00 43 1007.7
20260510023037 54 87 0.0 0.0 0.00 0.00 0.00 41 1007.4
20260510021534 55 87 0.0 0.0 0.00 0.00 0.00 40 1007.1
20260510020033 56 87 0.0 0.0 0.00 0.00 0.00 39 1006.8
20260510014531 57 82 0.0 0.0 0.00 0.00 0.00 39 1006.5
20260510013028 58 80 0.0 0.0 0.00 0.00 0.00 38 1006.2
20260510011529 58 80 0.0 0.0 0.00 0.00 0.00 37 1005.8
20260510010023 59 189 0.0 0.0 0.00 0.00 0.00 36 1005.3
20260510004522 60 114 0.0 0.0 0.00 0.00 0.00 36 1005.1
20260510003020 61 170 0.0 0.0 0.00 0.00 0.00 34 1004.9
20260510001519 62 107 0.0 0.0 0.00 0.00 0.00 35 1004.8
20260510000020 62 100 0.0 0.0 0.00 0.00 0.00 35 1004.5
20260509234515 63 135 1.0 0.0 0.00 0.00 0.00 34 1004.2
20260509233013 64 112 0.0 0.0 0.00 0.00 0.00 33 1004.0
20260509231512 65 220 2.0 0.0 0.00 0.00 0.00 33 1004.0
20260509230010 65 104 2.0 0.0 0.00 0.00 0.00 35 1003.6
20260509224508 65 68 1.0 0.0 0.00 0.00 0.00 36 1003.4
20260509223007 65 176 1.0 0.0 0.00 0.00 0.00 37 1003.2
20260509221505 65 138 1.0 0.0 0.00 0.00 0.00 39 1003.0
20260509220007 66 127 1.0 0.0 0.00 0.00 0.00 36 1002.9
20260509214501 68 166 2.0 0.0 0.00 0.00 0.00 36 1002.7
20260509213101 68 219 2.0 0.0 0.00 0.00 0.00 36 1002.4
20260509211602 70 74 1.0 0.0 0.00 0.00 0.00 36 1002.2
20260509210108 70 43 3.0 0.0 0.00 0.00 0.00 33 1002.1
20260509204556 71 110 2.0 0.0 0.00 0.00 0.00 34 1001.9
20260509203055 70 214 2.0 0.0 0.00 0.00 0.00 35 1001.9
20260509201554 70 161 2.0 0.0 0.00 0.00 0.00 35 1001.8
20260509200055 71 65 2.0 0.0 0.00 0.00 0.00 36 1001.6
20260509194550 70 185 2.0 0.0 0.00 0.00 0.00 37 1001.2
20260509193050 70 91 2.0 0.0 0.00 0.00 0.00 36 1001.2
20260509191548 70 93 2.0 0.0 0.00 0.00 0.00 38 1001.1
20260509190050 70 174 3.0 0.0 0.00 0.00 0.00 38 1000.9
20260509184545 70 144 3.0 0.0 0.00 0.00 0.00 37 1000.8
20260509183042 69 107 2.0 0.0 0.00 0.00 0.00 38 1000.4
20260509181540 68 91 2.0 0.0 0.00 0.00 0.00 37 1000.2
20260509180037 68 85 2.0 0.0 0.00 0.00 0.00 39 999.9
20260509174538 67 71 4.0 0.0 0.00 0.00 0.00 40 1000.0
20260509173055 67 86 2.0 0.0 0.00 0.00 0.00 43 1000.0
20260509171536 65 60 4.0 0.0 0.00 0.00 0.00 45 999.9
20260509170031 64 74 4.0 0.0 0.00 0.00 0.00 43 1000.0
20260509164527 64 156 3.0 0.0 0.00 0.00 0.00 43 1000.1
20260509163026 63 47 3.0 0.0 0.00 0.00 0.00 42 1000.1
20260509161524 61 71 2.0 0.0 0.00 0.00 0.00 42 1000.0
20260509160024 61 58 1.0 0.0 0.00 0.00 0.00 41 1000.0
20260509154523 62 51 1.0 0.0 0.00 0.00 0.00 41 1000.0
20260509153031 61 51 0.0 0.0 0.00 0.00 0.00 41 999.9
20260509151522 62 161 1.0 0.0 0.00 0.00 0.00 38 1000.1
20260509150022 62 94 1.0 0.0 0.00 0.00 0.00 40 1000.4